Tracking 28799 objects as of 18-Apr-2024
HD Live streaming from Space Station
objects crossing your sky now

CP-9 LEO


CP-9 LEO is no longer on orbit
CP-9 LEO is classified as:


NORAD ID: 44360
Int'l Code: 2019-036X
Perigee: N/A
Apogee: N/A
Inclination: N/A
Period: N/A
Semi major axis: N/A
RCS: N/A
Launch date: June 25, 2019
Source: United States (US)
Launch site: AIR FORCE EASTERN TEST RANGE (AFETR)
Decay date: 2021-10-28

Uplink (MHz):
Downlink (MHz): 437.505
Beacon (MHz):
Mode: 9k6*/19k2/38k4 FSK
Call sign: KJ6RQH-1
Status: Reentered


Uplink (MHz):
Downlink (MHz): 437.505
Beacon (MHz):
Mode: 9k6*/19k2/38k4 FSK
Call sign: KJ6RQH-1
Status: Reentered

Your satellite tracking list
Your tracking list is empty




NASA's NSSDC Master Catalog

Two Line Element Set (TLE):
1 44360U 19036X   21298.30413016  .01594744  18532-2  12518-2 0  9990
2 44360  28.4843 154.2459 0035176 200.8010 159.1175 16.12399308130387
Source of the keplerian elements: Caltech